[[{"header":{"parameterUnit":"m.s-1","parameterCategory":1,"la1":30.2991,"la2":30.254,"lo1":-89.0895,"lo2":-89.0444,"dy":0.0017,"dx":0.0017,"nx":28,"ny":28,"refTime":"2025-07-04T09:00:00:Z","depth":0,"parameterNumber":2,"parameterNumberName":"U-component_of_WINDS"},"data":[0,0,0,0,0,0,0,0,0,0,0,0,0,0,0,0,0,0,0,0,0,0,0,0,0,0,0,0,0,0,0,0,0,0,0,0,0,0,0,0,0,0,0,0,0,0,0,0,0,0,0,0,0,0,0,0,0,0,0.6029,0.603,0,0.612,0.6121,0.6122,0.6153,0.6153,0.6152,0.6152,0.6251,0.6253,0.6256,0,0,0,0,0,0,0,0,0,0,0,0,0,0.5887,0.5889,0.6029,0.603,0.6031,0.612,0.6121,0.6122,0.6153,0.6153,0.6152,0.6152,0.625,0.6253,0.6257,0,0,0,0,0,0,0,0,0,0,0,0,0,0.596,0.589,0.6028,0.6057,0.606,0.612,0.6121,0.6123,0.6153,0.6153,0.6152,0.6152,0.6248,0.6253,0.6257,0.6296,0,0,0.6271,0.6273,0,0,0,0,0,0,0,0,0.5956,0.5966,0.6052,0.6055,0.6059,0.6124,0.6107,0.6181,0.6153,0.6118,0.6152,0.6151,0.6209,0.6217,0.6236,0.6301,0.6305,0.6271,0.6274,0.6276,0.6277,0,0,0,0,0,0,0,0.5951,0.5962,0.6065,0.6053,0.6057,0.6067,0.6077,0.6121,0.6166,0.6121,0.6124,0.6134,0.6211,0.6231,0.6238,0.6307,0.6271,0.6275,0.6278,0.628,0.6411,0.6412,0,0,0,0,0,0,0.594,0.5957,0.6062,0.6068,0.6005,0.607,0.6081,0.6104,0.6166,0.6174,0.6134,0.6135,0.6224,0.6233,0.6242,0.6293,0.6276,0.628,0.6283,0.641,0.6411,0.6412,0,0,0,0,0,0,0.5937,0.5949,0.6058,0.6013,0.6028,0.6073,0.6099,0.6106,0.6126,0.6175,0.6184,0.6146,0.6224,0.6235,0.6283,0.6296,0.6282,0.6286,0.6409,0.641,0.6411,0.6394,0,0,0,0,0,0,0.5933,0.5948,0.5962,0.6013,0.603,0.6096,0.61,0.6108,0.6133,0.6135,0.6189,0.6197,0.6224,0.6276,0.6287,0.6302,0.629,0.6408,0.641,0.6411,0.6393,0.6394,0.6395,0,0,0,0,0,0.5928,0.5954,0.5962,0.5975,0.6048,0.6096,0.6106,0.6135,0.6134,0.6149,0.6181,0.6195,0.6293,0.628,0.6293,0.631,0.6407,0.6409,0.6411,0.6393,0.6394,0.6395,0,0,0,0,0,0,0.5905,0.5961,0.5971,0.6014,0.605,0.6101,0.6121,0.6135,0.6174,0.6174,0.6211,0.6223,0.6267,0.6294,0.6278,0.6352,0.6351,0.6356,0.6333,0.6334,0.6335,0.6328,0.6293,0,0,0,0,0,0.5904,0.5937,0.5985,0.6019,0.6036,0.6076,0.6098,0.6117,0.6157,0.6172,0.6208,0.6247,0.6287,0.6312,0.6351,0.6397,0.6411,0.6416,0.6416,0.6417,0.642,0.6448,0.6451,0.6418,0.6418,0.6418,0,0,0.5904,0.5939,0.5958,0.6015,0.6045,0.608,0.6088,0.6125,0.6152,0.6179,0.6225,0.6252,0.6299,0.6346,0.6368,0.6369,0.6433,0.6419,0.6419,0.6423,0.645,0.6453,0.6456,0.6419,0.6419,0.6419,0,0,0.5922,0.5951,0.5983,0.6013,0.6057,0.6084,0.6091,0.6141,0.616,0.6207,0.6228,0.6262,0.6329,0.6361,0.6387,0.6418,0.6433,0.643,0.6434,0.6461,0.6464,0.6466,0.6478,0.6482,0.6434,0.6434,0.6434,0,0.5917,0.5968,0.5998,0.6033,0.6058,0.6083,0.6117,0.6145,0.6201,0.6219,0.6219,0.6304,0.6337,0.6393,0.64,0.642,0.6431,0.6424,0.6461,0.6464,0.6466,0.6478,0.6483,0.6433,0.6433,0.6433,0.6433,0,0.596,0.5996,0.6016,0.6068,0.6096,0.613,0.6167,0.6192,0.621,0.6237,0.6285,0.6326,0.6374,0.6389,0.6407,0.6447,0.6447,0.6453,0.6453,0.6468,0.648,0.6485,0.6432,0.6432,0.6432,0.6433,0,0,0.5965,0.6033,0.604,0.6065,0.6117,0.6146,0.6182,0.6228,0.6249,0.6288,0.6321,0.6377,0.6384,0.6413,0.6435,0.6458,0.6482,0.6463,0.6464,0.6465,0.6531,0.6526,0.653,0.6492,0.6493,0.6494,0.6527,0,0.599,0.6053,0.6082,0.6134,0.6168,0.6193,0.6225,0.6262,0.6288,0.6323,0.6354,0.6393,0.6399,0.6416,0.644,0.6474,0.6496,0.6472,0.6525,0.6526,0.6512,0.6536,0.6531,0.656,0.6532,0.6533,0.6534,0,0.6027,0.6064,0.6119,0.6167,0.6183,0.6211,0.6256,0.6288,0.6331,0.6349,0.6382,0.6403,0.6445,0.6442,0.65,0.6483,0.6507,0.6527,0.6529,0.6535,0.6531,0.6544,0.657,0.6574,0.6541,0.654,0.654,0,0.6025,0.6089,0.6131,0.6151,0.6209,0.6228,0.6253,0.6296,0.6322,0.6362,0.638,0.6425,0.645,0.6485,0.6519,0.6513,0.6575,0.6575,0.6592,0.6592,0.6604,0.6603,0.6634,0.6619,0.6619,0.6619,0.6619,0,0.605,0.6083,0.6131,0.6156,0.6194,0.6228,0.6265,0.6293,0.633,0.6363,0.6389,0.6419,0.6462,0.6499,0.6526,0.6571,0.6582,0.6599,0.6606,0.6597,0.6595,0.6613,0.6612,0.662,0.662,0.6619,0.6619,0,0.6054,0.6088,0.6134,0.6185,0.6199,0.6225,0.627,0.6297,0.6325,0.6366,0.6378,0.6423,0.6468,0.6505,0.6564,0.6583,0.663,0.6638,0.6615,0.6618,0.6634,0.6632,0.6679,0.6687,0.6665,0.6665,0.6666,0,0.6068,0.6093,0.6147,0.617,0.6194,0.6231,0.6258,0.6293,0.632,0.6372,0.6393,0.6439,0.6478,0.6549,0.6588,0.6634,0.6643,0.6656,0.665,0.6641,0.6644,0.6642,0.6645,0.6657,0.6657,0.6657,0.6657,0,0.6088,0.6104,0.614,0.6182,0.6213,0.6249,0.6285,0.6303,0.6345,0.6375,0.642,0.645,0.651,0.6557,0.6607,0.6636,0.6654,0.6658,0.6665,0.6656,0.6642,0.665,0.6616,0.6657,0.6657,0.6657,0.6657,0.6657,0.6098,0.6122,0.6164,0.6204,0.6235,0.6269,0.6296,0.6328,0.6366,0.6416,0.6435,0.6482,0.6527,0.6596,0.6625,0.6663,0.6666,0.6675,0.6677,0.6679,0.6678,0.6635,0.6673,0.6673,0.6673,0.6673,0.6673,0,0.612,0.6148,0.6185,0.6234,0.6267,0.6279,0.6321,0.6348,0.6388,0.6427,0.6464,0.6517,0.6563,0.6606,0.6654,0.6677,0.6686,0.6688,0.6687,0.6693,0.6673,0.6663,0.6679,0.6679,0.6679,0.6679,0.6679,0.6679,0.6135,0.6177,0.6198,0.6256,0.6285,0.6329,0.6352,0.6384,0.6416,0.6473,0.651,0.6537,0.6579,0.663,0.6673,0.6685,0.6702,0.6702,0.6716,0.6696,0.6695,0.6694,0.6684,0.6705,0.6705,0.6733,0.6733,0.6733]},{"header":{"parameterUnit":"m.s-1","parameterCategory":1,"la1":30.2991,"la2":30.254,"lo1":-89.0895,"lo2":-89.0444,"dy":0.0017,"dx":0.0017,"nx":28,"ny":28,"refTime":"2025-07-04T09:00:00:Z","depth":0,"parameterNumber":3,"parameterNumberName":"V-component_of_WINDS"},"data":[0,0,0,0,0,0,0,0,0,0,0,0,0,0,0,0,0,0,0,0,0,0,0,0,0,0,0,0,0,0,0,0,0,0,0,0,0,0,0,0,0,0,0,0,0,0,0,0,0,0,0,0,0,0,0,0,0,0,-1.6634,-1.6634,0,-1.6649,-1.6649,-1.6649,-1.6674,-1.6674,-1.6675,-1.6675,-1.6686,-1.6685,-1.6685,0,0,0,0,0,0,0,0,0,0,0,0,0,-1.6626,-1.6626,-1.6634,-1.6634,-1.6634,-1.6649,-1.6649,-1.6649,-1.6674,-1.6674,-1.6675,-1.6676,-1.6686,-1.6685,-1.6685,0,0,0,0,0,0,0,0,0,0,0,0,0,-1.6634,-1.6626,-1.6634,-1.6649,-1.665,-1.6649,-1.6649,-1.6649,-1.6674,-1.6675,-1.6675,-1.6676,-1.6686,-1.6686,-1.6685,-1.6669,0,0,-1.6684,-1.6684,0,0,0,0,0,0,0,0,-1.6633,-1.6634,-1.6646,-1.6648,-1.6649,-1.666,-1.665,-1.6656,-1.6674,-1.6665,-1.6675,-1.6676,-1.6676,-1.6677,-1.6678,-1.667,-1.667,-1.6684,-1.6684,-1.6684,-1.6684,0,0,0,0,0,0,0,-1.6632,-1.6633,-1.664,-1.6646,-1.6648,-1.6654,-1.6656,-1.6651,-1.6666,-1.6665,-1.6667,-1.6669,-1.6677,-1.6678,-1.6678,-1.667,-1.6684,-1.6684,-1.6684,-1.6684,-1.6654,-1.6653,0,0,0,0,0,0,-1.663,-1.6633,-1.6639,-1.664,-1.6643,-1.6654,-1.6656,-1.6656,-1.6666,-1.6669,-1.6668,-1.667,-1.6678,-1.6679,-1.6679,-1.6663,-1.6684,-1.6684,-1.6684,-1.6655,-1.6654,-1.6653,0,0,0,0,0,0,-1.663,-1.6631,-1.6639,-1.6637,-1.6639,-1.6653,-1.6653,-1.6656,-1.6657,-1.6669,-1.6671,-1.6667,-1.6679,-1.6679,-1.6673,-1.6664,-1.6684,-1.6684,-1.6655,-1.6654,-1.6653,-1.6631,0,0,0,0,0,0,-1.663,-1.663,-1.6624,-1.6637,-1.6639,-1.6633,-1.6652,-1.6656,-1.6657,-1.6659,-1.6668,-1.667,-1.6679,-1.6673,-1.6673,-1.6664,-1.6683,-1.6656,-1.6655,-1.6654,-1.6632,-1.6629,-1.6626,0,0,0,0,0,-1.6629,-1.6615,-1.6624,-1.6625,-1.6632,-1.6632,-1.6633,-1.6646,-1.6656,-1.6651,-1.6659,-1.6669,-1.6665,-1.6672,-1.6672,-1.6663,-1.6657,-1.6655,-1.6654,-1.6634,-1.663,-1.6627,0,0,0,0,0,0,-1.6599,-1.6617,-1.6627,-1.6617,-1.6623,-1.6636,-1.6629,-1.6641,-1.6643,-1.6645,-1.6659,-1.6661,-1.6653,-1.6657,-1.6665,-1.665,-1.6663,-1.6661,-1.6648,-1.6644,-1.6641,-1.664,-1.6683,0,0,0,0,0,-1.6592,-1.6591,-1.6607,-1.6597,-1.66,-1.6614,-1.6615,-1.6625,-1.6631,-1.6633,-1.6641,-1.6645,-1.6646,-1.6645,-1.6645,-1.6633,-1.6637,-1.6628,-1.6625,-1.6622,-1.662,-1.6617,-1.6614,-1.6648,-1.6648,-1.6648,0,0,-1.6575,-1.6585,-1.6584,-1.6591,-1.6597,-1.6597,-1.6616,-1.6613,-1.6613,-1.6632,-1.6628,-1.6634,-1.664,-1.6632,-1.6628,-1.6635,-1.6612,-1.662,-1.6618,-1.6618,-1.6616,-1.6612,-1.661,-1.6647,-1.6648,-1.6648,0,0,-1.6546,-1.6553,-1.6547,-1.6554,-1.6564,-1.6574,-1.6573,-1.6586,-1.6591,-1.6587,-1.6603,-1.6602,-1.6601,-1.6607,-1.6609,-1.6587,-1.6597,-1.6586,-1.657,-1.6567,-1.6565,-1.6562,-1.6556,-1.6554,-1.6584,-1.6584,-1.6584,0,-1.6524,-1.6525,-1.6542,-1.654,-1.6544,-1.6564,-1.6559,-1.6564,-1.6572,-1.6574,-1.6582,-1.6585,-1.659,-1.6585,-1.658,-1.658,-1.658,-1.6585,-1.6564,-1.6562,-1.656,-1.6554,-1.6552,-1.6583,-1.6583,-1.6583,-1.6584,0,-1.6499,-1.6499,-1.6493,-1.6505,-1.6508,-1.6503,-1.652,-1.6521,-1.6532,-1.6542,-1.6539,-1.6547,-1.6551,-1.6551,-1.6559,-1.6547,-1.6552,-1.6561,-1.6574,-1.6555,-1.655,-1.6548,-1.6581,-1.6582,-1.6582,-1.6582,0,0,-1.6448,-1.6473,-1.647,-1.6477,-1.6492,-1.6492,-1.649,-1.6497,-1.6498,-1.6504,-1.6504,-1.6505,-1.6516,-1.6518,-1.6528,-1.6526,-1.651,-1.6536,-1.6537,-1.6532,-1.65,-1.6493,-1.649,-1.6518,-1.6518,-1.6517,-1.65,0,-1.6422,-1.6422,-1.6439,-1.6433,-1.6436,-1.6457,-1.6456,-1.6464,-1.6474,-1.6477,-1.6487,-1.6489,-1.6502,-1.6504,-1.6502,-1.6513,-1.6504,-1.6514,-1.6517,-1.6517,-1.6516,-1.6487,-1.6479,-1.6463,-1.6498,-1.6498,-1.6498,0,-1.6391,-1.64,-1.6396,-1.6415,-1.6416,-1.6414,-1.6424,-1.6426,-1.6437,-1.6445,-1.6451,-1.6464,-1.6463,-1.6476,-1.6477,-1.6483,-1.6486,-1.6492,-1.6491,-1.6492,-1.6506,-1.6489,-1.6458,-1.6456,-1.6494,-1.6494,-1.6495,0,-1.6358,-1.6367,-1.6367,-1.6372,-1.6393,-1.6393,-1.6401,-1.6413,-1.6417,-1.6425,-1.6428,-1.6435,-1.6439,-1.6444,-1.6459,-1.6466,-1.6458,-1.6472,-1.6465,-1.6465,-1.6462,-1.6462,-1.6432,-1.6462,-1.6462,-1.6462,-1.6462,0,-1.6328,-1.6324,-1.6353,-1.6353,-1.6351,-1.6371,-1.6368,-1.6378,-1.639,-1.6392,-1.641,-1.6411,-1.6431,-1.6435,-1.6446,-1.6446,-1.6447,-1.6454,-1.6457,-1.6452,-1.6452,-1.6454,-1.6456,-1.6462,-1.6462,-1.6462,-1.6462,0,-1.6289,-1.6307,-1.6309,-1.6331,-1.6336,-1.6334,-1.6352,-1.6353,-1.6365,-1.6368,-1.637,-1.6389,-1.6395,-1.6411,-1.642,-1.6428,-1.6425,-1.643,-1.6422,-1.6424,-1.6417,-1.6418,-1.6388,-1.6386,-1.6417,-1.6416,-1.6416,0,-1.6268,-1.6267,-1.629,-1.6294,-1.6303,-1.6309,-1.6315,-1.6335,-1.634,-1.6355,-1.6354,-1.6363,-1.637,-1.6379,-1.6393,-1.6401,-1.6407,-1.6396,-1.6408,-1.6405,-1.6408,-1.6409,-1.6409,-1.6393,-1.6393,-1.6392,-1.6392,0,-1.6231,-1.6242,-1.625,-1.6263,-1.627,-1.628,-1.6291,-1.6293,-1.6316,-1.6321,-1.6329,-1.6335,-1.6347,-1.6355,-1.6366,-1.6374,-1.6387,-1.6389,-1.6388,-1.6383,-1.6379,-1.6383,-1.6416,-1.6389,-1.6389,-1.6389,-1.6389,-1.639,-1.6202,-1.6204,-1.6221,-1.6231,-1.6242,-1.6253,-1.6256,-1.6271,-1.6279,-1.6291,-1.6303,-1.631,-1.6324,-1.6341,-1.6348,-1.6354,-1.6361,-1.6359,-1.6358,-1.6358,-1.6357,-1.6378,-1.6356,-1.6356,-1.6356,-1.6356,-1.6356,0,-1.6168,-1.6181,-1.619,-1.6207,-1.6215,-1.623,-1.6244,-1.6249,-1.6256,-1.6269,-1.6277,-1.6288,-1.6297,-1.6313,-1.6324,-1.6326,-1.6332,-1.6328,-1.6328,-1.633,-1.6349,-1.635,-1.6323,-1.6323,-1.6323,-1.6323,-1.6323,-1.6323,-1.6151,-1.6155,-1.6168,-1.6179,-1.6192,-1.6201,-1.6208,-1.6219,-1.623,-1.6242,-1.6251,-1.6262,-1.6277,-1.629,-1.6299,-1.6303,-1.6307,-1.6301,-1.6307,-1.6325,-1.6328,-1.6331,-1.6332,-1.6301,-1.6301,-1.6288,-1.6287,-1.6287]}]]